• In Uzbekistan
  • List of Countries
  • For 7 days
  • Water Temperature
  • Satellite Maps
  • Weather Map
  • Weather Widgets
  • user-avatar
    Login

    Hourly Weather Limassol

    Today, 18 September, Tuesday

    Time Temperature Precipitation Wind Pressure Humidity
    00:00 +29°C° 0 mm 3 mps 761 mmHg 46%
    01:00 +29°C° 0 mm 3 mps 761 mmHg 47%
    02:00 +28°C° 0 mm 3 mps 761 mmHg 50%
    03:00 +28°C° 0 mm 3 mps 761 mmHg 49%
    04:00 +28°C° 0 mm 2 mps 761 mmHg 47%
    05:00 +28°C° 0 mm 2 mps 761 mmHg 46%
    06:00 +29°C° 0 mm 2 mps 761 mmHg 41%
    07:00 +31°C° 0 mm 1 mps 761 mmHg 37%
    08:00 +33°C° 0 mm 1 mps 761 mmHg 32%
    09:00 +35°C° 0 mm 2 mps 761 mmHg 30%
    10:00 +36°C° 0 mm 2 mps 761 mmHg 29%
    11:00 +36°C° 0 mm 2 mps 762 mmHg 28%
    12:00 +37°C° 0 mm 2 mps 761 mmHg 28%
    13:00 +37°C° 0 mm 3 mps 761 mmHg 27%
    14:00 +38°C° 0 mm 4 mps 761 mmHg 29%
    15:00 +37°C° 0 mm 4 mps 761 mmHg 30%
    16:00 +36°C° 0 mm 4 mps 761 mmHg 32%
    17:00 +35°C° 0 mm 4 mps 761 mmHg 34%
    18:00 +34°C° 0 mm 4 mps 761 mmHg 39%
    19:00 +33°C° 0 mm 4 mps 761 mmHg 44%
    20:00 +31°C° 0 mm 3 mps 761 mmHg 49%
    21:00 +30°C° 0 mm 3 mps 761 mmHg 49%
    22:00 +30°C° 0 mm 4 mps 762 mmHg 50%
    23:00 +30°C° 0 mm 4 mps 762 mmHg 50%

    Tomorrow, 19 September, Wednesday

    Time Temperature Precipitation Wind Pressure Humidity
    00:00 +29°C° 0 mm 4 mps 762 mmHg 53%
    01:00 +29°C° 0 mm 4 mps 762 mmHg 55%
    02:00 +29°C° 0 mm 3 mps 762 mmHg 58%
    03:00 +28°C° 0 mm 3 mps 762 mmHg 57%
    04:00 +28°C° 0 mm 3 mps 762 mmHg 56%
    05:00 +28°C° 0 mm 2 mps 762 mmHg 55%
    06:00 +29°C° 0 mm 2 mps 762 mmHg 49%
    07:00 +31°C° 0 mm 2 mps 762 mmHg 43%
    08:00 +34°C° 0 mm 2 mps 762 mmHg 37%
    09:00 +35°C° 0 mm 2 mps 762 mmHg 34%
    10:00 +36°C° 0 mm 3 mps 763 mmHg 32%
    11:00 +37°C° 0 mm 3 mps 763 mmHg 30%
    12:00 +37°C° 0 mm 3 mps 762 mmHg 30%
    13:00 +37°C° 0 mm 4 mps 762 mmHg 30%
    14:00 +37°C° 0 mm 4 mps 762 mmHg 30%
    15:00 +37°C° 0 mm 5 mps 762 mmHg 32%
    16:00 +36°C° 0 mm 5 mps 762 mmHg 34%
    17:00 +35°C° 0 mm 5 mps 761 mmHg 36%
    18:00 +34°C° 0 mm 4 mps 762 mmHg 40%
    19:00 +33°C° 0 mm 4 mps 762 mmHg 44%
    20:00 +32°C° 0 mm 4 mps 762 mmHg 47%
    21:00 +32°C° 0 mm 4 mps 762 mmHg 48%
    22:00 +30°C° 0 mm 4 mps 762 mmHg 48%
    23:00 +30°C° 0 mm 4 mps 762 mmHg 49%

    Day after tomorrow, 20 September, Thursday

    Time Temperature Precipitation Wind Pressure Humidity
    00:00 +29°C° 0 mm 3 mps 762 mmHg 49%
    01:00 +29°C° 0 mm 3 mps 762 mmHg 50%
    02:00 +29°C° 0 mm 3 mps 762 mmHg 51%
    03:00 +28°C° 0 mm 3 mps 762 mmHg 52%
    04:00 +28°C° 0 mm 2 mps 762 mmHg 53%
    05:00 +28°C° 0 mm 2 mps 762 mmHg 54%
    06:00 +29°C° 0 mm 2 mps 762 mmHg 48%
    07:00 +31°C° 0 mm 2 mps 762 mmHg 42%
    08:00 +32°C° 0 mm 1 mps 763 mmHg 36%
    09:00 +34°C° 0 mm 2 mps 763 mmHg 33%
    10:00 +36°C° 0 mm 2 mps 763 mmHg 31%
    11:00 +37°C° 0 mm 2 mps 763 mmHg 29%
    12:00 +37°C° 0 mm 3 mps 763 mmHg 30%
    13:00 +37°C° 0 mm 4 mps 763 mmHg 31%
    14:00 +37°C° 0 mm 5 mps 762 mmHg 33%
    15:00 +36°C° 0 mm 5 mps 762 mmHg 36%
    16:00 +35°C° 0 mm 5 mps 762 mmHg 40%
    17:00 +34°C° 0 mm 5 mps 762 mmHg 44%
    18:00 +33°C° 0 mm 5 mps 762 mmHg 49%
    19:00 +32°C° 0 mm 4 mps 762 mmHg 54%
    20:00 +30°C° 0 mm 4 mps 762 mmHg 59%
    21:00 +30°C° 0 mm 4 mps 762 mmHg 61%
    22:00 +30°C° 0 mm 3 mps 762 mmHg 63%
    23:00 +29°C° 0 mm 3 mps 762 mmHg 65%

    21 September, Friday

    Time Temperature Precipitation Wind Pressure Humidity
    00:00 +29°C° 0 mm 3 mps 762 mmHg 66%
    01:00 +28°C° 0 mm 3 mps 762 mmHg 68%
    02:00 +28°C° 0 mm 3 mps 762 mmHg 69%
    03:00 +28°C° 0 mm 3 mps 762 mmHg 69%
    04:00 +27°C° 0 mm 2 mps 762 mmHg 70%
    05:00 +27°C° 0 mm 2 mps 762 mmHg 70%
    06:00 +28°C° 0 mm 2 mps 762 mmHg 61%
    07:00 +30°C° 0 mm 2 mps 763 mmHg 52%
    08:00 +31°C° 0 mm 1 mps 763 mmHg 42%
    09:00 +34°C° 0 mm 2 mps 763 mmHg 39%
    10:00 +35°C° 0 mm 2 mps 763 mmHg 36%
    11:00 +36°C° 0 mm 2 mps 764 mmHg 33%
    12:00 +36°C° 0 mm 3 mps 763 mmHg 34%
    13:00 +36°C° 0 mm 4 mps 763 mmHg 35%
    14:00 +36°C° 0 mm 5 mps 763 mmHg 37%
    15:00 +35°C° 0 mm 5 mps 763 mmHg 40%
    16:00 +34°C° 0 mm 5 mps 763 mmHg 43%
    17:00 +34°C° 0 mm 5 mps 762 mmHg 47%
    18:00 +33°C° 0 mm 5 mps 763 mmHg 52%
    19:00 +32°C° 0 mm 4 mps 763 mmHg 57%
    20:00 +30°C° 0 mm 4 mps 763 mmHg 63%
    21:00 +29°C° 0 mm 4 mps 763 mmHg 63%
    22:00 +29°C° 0 mm 3 mps 763 mmHg 63%
    23:00 +29°C° 0 mm 3 mps 763 mmHg 63%

    22 September, Saturday

    Time Temperature Precipitation Wind Pressure Humidity
    00:00 +28°C° 0 mm 3 mps 763 mmHg 63%
    01:00 +28°C° 0 mm 3 mps 763 mmHg 62%
    02:00 +27°C° 0 mm 3 mps 763 mmHg 61%
    03:00 +27°C° 0 mm 3 mps 763 mmHg 61%
    04:00 +27°C° 0 mm 2 mps 763 mmHg 62%
    05:00 +26°C° 0 mm 2 mps 763 mmHg 62%
    06:00 +28°C° 0 mm 2 mps 764 mmHg 54%
    07:00 +29°C° 0 mm 2 mps 764 mmHg 47%
    08:00 +31°C° 0 mm 2 mps 764 mmHg 39%
    09:00 +32°C° 0 mm 2 mps 764 mmHg 36%
    10:00 +35°C° 0 mm 2 mps 764 mmHg 33%
    11:00 +36°C° 0 mm 3 mps 764 mmHg 30%
    12:00 +36°C° 0 mm 3 mps 764 mmHg 32%
    13:00 +36°C° 0 mm 4 mps 764 mmHg 34%
    14:00 +36°C° 0 mm 5 mps 763 mmHg 36%
    15:00 +35°C° 0 mm 5 mps 763 mmHg 40%
    16:00 +34°C° 0 mm 5 mps 763 mmHg 44%
    17:00 +33°C° 0 mm 5 mps 763 mmHg 48%
    18:00 +33°C° 0 mm 5 mps 763 mmHg 54%
    19:00 +32°C° 0 mm 5 mps 764 mmHg 59%
    20:00 +30°C° 0 mm 4 mps 764 mmHg 65%
    21:00 +29°C° 0 mm 4 mps 764 mmHg 67%
    22:00 +29°C° 0 mm 4 mps 764 mmHg 69%
    23:00 +28°C° 0 mm 4 mps 764 mmHg 71%

    23 September, Sunday

    Time Temperature Precipitation Wind Pressure Humidity
    00:00 +28°C° 0 mm 4 mps 764 mmHg 72%
    01:00 +27°C° 0 mm 4 mps 764 mmHg 74%
    02:00 +27°C° 0 mm 4 mps 764 mmHg 75%
    03:00 +27°C° 0 mm 3 mps 764 mmHg 76%
    04:00 +26°C° 0 mm 3 mps 764 mmHg 76%
    05:00 +26°C° 0 mm 2 mps 764 mmHg 77%
    06:00 +27°C° 0 mm 2 mps 764 mmHg 69%
    07:00 +29°C° 0 mm 2 mps 764 mmHg 61%
    08:00 +30°C° 0 mm 2 mps 764 mmHg 53%
    09:00 +32°C° 0 mm 2 mps 764 mmHg 48%
    10:00 +34°C° 0 mm 2 mps 764 mmHg 43%
    11:00 +35°C° 0 mm 3 mps 764 mmHg 38%
    12:00 +36°C° 0 mm 4 mps 764 mmHg 40%
    13:00 +36°C° 0 mm 4 mps 764 mmHg 41%
    14:00 +36°C° 0 mm 5 mps 763 mmHg 43%
    15:00 +35°C° 0 mm 5 mps 763 mmHg 47%
    16:00 +34°C° 0 mm 5 mps 763 mmHg 52%
    17:00 +33°C° 0 mm 5 mps 763 mmHg 56%
    18:00 +32°C° 0 mm 5 mps 763 mmHg 61%
    19:00 +30°C° 0 mm 4 mps 763 mmHg 66%
    20:00 +29°C° 0 mm 4 mps 764 mmHg 70%
    21:00 +29°C° 0 mm 4 mps 764 mmHg 72%
    22:00 +29°C° 0 mm 4 mps 763 mmHg 74%
    23:00 +28°C° 0 mm 3 mps 763 mmHg 76%
    Show more